Chester, SC

10:30 AM EDT on June 24, 2017 (GMT -0400)
Chester

Weather History for KDCM - January, 2013

Change the Weather History Date:

Wednesday, January 23, 2013

  Actual Average (KUZA) Record (KUZA)
Temperature  
Mean Temperature 37 °F -  
Max Temperature 48 °F 51 °F 76 °F (1974)
Min Temperature 26 °F 32 °F 12 °F (1985)
Degree Days  
Heating Degree Days 28    
Moisture  
Dew Point 19 °F    
Average Humidity 50    
Maximum Humidity 75    
Minimum Humidity 31    
Precipitation  
Precipitation 0.00 in - - ()
Sea Level Pressure  
Sea Level Pressure 30.24 in    
Wind  
Wind Speed 2 mph (South)    
Max Wind Speed 9 mph    
Max Gust Speed -    
Visibility 10 miles    
Events      
Averages and records for this station are not official NWS values.
T = Trace of Precipitation, MM = Missing Value Source: NWS Daily Summary

Daily Weather History Graph

Daily Weather History Graph

Search for Another Location

Airport or City:

Trip Planner

Search our weather history database for the weather conditions in past years. The results will help you decide how hot, cold, wet, or windy it might be!

Date:

Astronomy

Jan. 23, 2013 Rise Set
Actual Time 7:28 AM EST 5:45 PM EST
Civil Twilight 7:01 AM EST 6:12 PM EST
Nautical Twilight 6:31 AM EST 6:42 PM EST
Astronomical Twilight 6:01 AM EST 7:12 PM EST
Moon 2:56 PM EST (1/23) 4:37 AM EST (1/23)
Length of Visible Light 11h 10m
Length of Day
10h 16m
Waxing Gibbous, 89% of the Moon is Illuminated
Jan 23
Waxing Gibbous
Jan 26
Full
Feb 3
Last Quarter
Feb 10
New
Feb 17
First Quarter

Hourly Weather History & Observations

Time (EST) Temp. Windchill Dew Point Humidity Pressure Visibility Wind Dir Wind Speed Gust Speed Precip Events Conditions
12:15 AM 32.0 °F 28.7 °F 5.0 °F 32% 30.26 in 10.0 mi North 3.5 mph - N/A   Clear
12:55 AM 32.0 °F - 8.6 °F 38% 30.27 in 10.0 mi Calm Calm - N/A   Clear
1:15 AM 30.2 °F - 10.4 °F 44% 30.27 in 10.0 mi Calm Calm - N/A   Clear
1:35 AM 30.2 °F - 14.0 °F 51% 30.27 in 10.0 mi Calm Calm - N/A   Clear
1:55 AM 28.4 °F - 14.0 °F 55% 30.28 in 10.0 mi Calm Calm - N/A   Clear
2:15 AM 28.4 °F - 14.0 °F 55% 30.28 in 10.0 mi Calm Calm - N/A   Clear
2:35 AM 28.4 °F - 14.0 °F 55% 30.29 in 10.0 mi Calm Calm - N/A   Clear
2:55 AM 28.4 °F - 17.6 °F 64% 30.29 in 10.0 mi Calm Calm - N/A   Clear
3:15 AM 28.4 °F - 12.2 °F 51% 30.28 in 10.0 mi Calm Calm - N/A   Clear
3:35 AM 28.4 °F - 14.0 °F 55% 30.29 in 10.0 mi Calm Calm - N/A   Clear
3:55 AM 28.4 °F - 17.6 °F 64% 30.28 in 10.0 mi Calm Calm - N/A   Clear
4:15 AM 28.4 °F - 12.2 °F 51% 30.29 in 10.0 mi Calm Calm - N/A   Clear
4:35 AM 28.4 °F - 14.0 °F 55% 30.29 in 10.0 mi Calm Calm - N/A   Clear
5:15 AM 26.6 °F - 14.0 °F 59% 30.30 in 10.0 mi Calm Calm - N/A   Clear
5:35 AM 26.6 °F - 14.0 °F 59% 30.30 in 10.0 mi Calm Calm - N/A   Clear
6:15 AM 26.6 °F - 10.4 °F 51% 30.31 in 10.0 mi Calm Calm - N/A   Clear
6:35 AM 26.6 °F - 12.2 °F 55% 30.32 in 10.0 mi Calm Calm - N/A   Clear
7:35 AM 26.6 °F 22.6 °F 12.2 °F 55% 30.33 in 10.0 mi SSE 3.5 mph - N/A   Clear
8:15 AM 32.0 °F 27.5 °F 8.6 °F 38% 30.33 in 10.0 mi South 4.6 mph - N/A   Clear
8:35 AM 30.2 °F - 14.0 °F 51% 30.34 in 10.0 mi Calm Calm - N/A   Clear
9:15 AM 32.0 °F 24.2 °F 12.2 °F 44% 30.35 in 10.0 mi SSE 9.2 mph - N/A   Clear
9:35 AM 32.0 °F 24.8 °F 10.4 °F 41% 30.35 in 10.0 mi SSE 8.1 mph - N/A   Clear
10:15 AM 35.6 °F 32.8 °F 12.2 °F 38% 30.35 in 10.0 mi SE 3.5 mph - N/A   Clear
10:35 AM 37.4 °F 33.8 °F 12.2 °F 36% 30.35 in 10.0 mi SE 4.6 mph - N/A   Clear
11:15 AM 41.0 °F - 12.2 °F 31% 30.34 in 10.0 mi Calm Calm - N/A   Clear
11:35 AM 41.0 °F - 12.2 °F 31% 30.33 in 10.0 mi Calm Calm - N/A   Clear
12:15 PM 42.8 °F 40.1 °F 14.0 °F 31% 30.30 in 10.0 mi ESE 4.6 mph - N/A   Clear
12:35 PM 42.8 °F 38.6 °F 14.0 °F 31% 30.29 in 10.0 mi SSW 6.9 mph - N/A   Clear
1:15 PM 44.6 °F 40.7 °F 17.6 °F 34% 30.26 in 10.0 mi SW 6.9 mph - N/A   Clear
1:35 PM 44.6 °F 40.7 °F 15.8 °F 31% 30.24 in 10.0 mi South 6.9 mph - N/A   Clear
2:15 PM 46.4 °F 42.9 °F 17.6 °F 32% 30.23 in 10.0 mi West 6.9 mph - N/A   Clear
2:35 PM 48.2 °F - 19.4 °F 32% 30.22 in 10.0 mi WSW 8.1 mph - N/A   Clear
2:55 PM 46.4 °F 43.5 °F 19.4 °F 34% 30.22 in 10.0 mi West 5.8 mph - N/A   Clear
3:15 PM 48.2 °F - 21.2 °F 34% 30.22 in 10.0 mi SW 8.1 mph - N/A   Clear
3:35 PM 48.2 °F - 21.2 °F 34% 30.21 in 10.0 mi SW 3.5 mph - N/A   Clear
3:55 PM 48.2 °F - 21.2 °F 34% 30.20 in 10.0 mi South 3.5 mph - N/A   Clear
4:15 PM 48.2 °F - 21.2 °F 34% 30.19 in 10.0 mi SW 3.5 mph - N/A   Clear
4:35 PM 46.4 °F 44.3 °F 23.0 °F 40% 30.19 in 10.0 mi South 4.6 mph - N/A   Clear
4:55 PM 46.4 °F 45.2 °F 23.0 °F 40% 30.19 in 10.0 mi South 3.5 mph - N/A   Clear
5:15 PM 46.4 °F 44.3 °F 24.8 °F 43% 30.18 in 10.0 mi South 4.6 mph - N/A   Clear
5:35 PM 44.6 °F 43.1 °F 24.8 °F 46% 30.18 in 10.0 mi South 3.5 mph - N/A   Clear
5:55 PM 42.8 °F 41.1 °F 26.6 °F 53% 30.18 in 10.0 mi SSE 3.5 mph - N/A   Clear
6:15 PM 41.0 °F 39.0 °F 26.6 °F 57% 30.17 in 10.0 mi South 3.5 mph - N/A   Clear
6:35 PM 41.0 °F 38.0 °F 26.6 °F 57% 30.17 in 10.0 mi SSE 4.6 mph - N/A   Clear
6:55 PM 42.8 °F 40.1 °F 26.6 °F 53% 30.17 in 10.0 mi South 4.6 mph - N/A   Clear
7:15 PM 41.0 °F 37.1 °F 26.6 °F 57% 30.16 in 10.0 mi South 5.8 mph - N/A   Clear
7:35 PM 41.0 °F 38.0 °F 26.6 °F 57% 30.15 in 10.0 mi South 4.6 mph - N/A   Clear
7:55 PM 41.0 °F 39.0 °F 26.6 °F 57% 30.15 in 10.0 mi South 3.5 mph - N/A   Clear
8:15 PM 37.4 °F 34.9 °F 28.4 °F 70% 30.15 in 10.0 mi South 3.5 mph - N/A   Clear
8:55 PM 39.2 °F 37.0 °F 28.4 °F 65% 30.14 in 10.0 mi SSW 3.5 mph - N/A   Clear
9:15 PM 37.4 °F - 28.4 °F 70% 30.14 in 10.0 mi Calm Calm - N/A   Clear
9:55 PM 37.4 °F 33.8 °F 30.2 °F 75% 30.12 in 10.0 mi SSW 4.6 mph - N/A   Clear
10:15 PM 39.2 °F 35.0 °F 30.2 °F 70% 30.11 in 10.0 mi SSW 5.8 mph - N/A   Clear
10:55 PM 37.4 °F 33.8 °F 30.2 °F 75% 30.11 in 10.0 mi SSW 4.6 mph - N/A   Clear
11:15 PM 37.4 °F 32.8 °F 30.2 °F 75% 30.09 in 10.0 mi SSW 5.8 mph - N/A   Clear
11:35 PM 37.4 °F 34.9 °F 30.2 °F 75% 30.08 in 10.0 mi SW 3.5 mph - N/A   Clear
11:55 PM 37.4 °F 34.9 °F 30.2 °F 75% 30.08 in 10.0 mi SSW 3.5 mph - N/A   Clear